TimeEDT,TemperatureF,Dew PointF,Humidity,Sea Level PressureIn,VisibilityMPH,Wind Direction,Wind SpeedMPH,Gust SpeedMPH,PrecipitationIn,Events,Conditions,WindDirDegrees,DateUTC
12:25 AM,44.6,26.6,49,30.11,10.0,ESE,5.8,-,N/A,,Overcast,120,2013-03-10 05:25:00
12:45 AM,44.6,26.6,49,30.10,10.0,ESE,5.8,-,N/A,,Overcast,110,2013-03-10 05:45:00
1:05 AM,46.4,24.8,43,30.10,10.0,SE,5.8,-,N/A,,Overcast,130,2013-03-10 06:05:00
1:25 AM,46.4,24.8,43,30.10,10.0,ESE,5.8,-,N/A,,Overcast,120,2013-03-10 06:25:00
1:45 AM,46.4,24.8,43,30.10,10.0,SE,4.6,-,N/A,,Overcast,130,2013-03-10 06:45:00
3:05 AM,46.4,24.8,43,30.09,10.0,ESE,4.6,-,N/A,,Overcast,120,2013-03-10 07:05:00
3:25 AM,46.4,24.8,43,30.09,10.0,SE,5.8,-,N/A,,Mostly Cloudy,130,2013-03-10 07:25:00
4:05 AM,46.4,24.8,43,30.07,10.0,ESE,5.8,-,N/A,,Overcast,120,2013-03-10 08:05:00
4:25 AM,46.4,24.8,43,30.06,10.0,ESE,5.8,-,N/A,,Overcast,120,2013-03-10 08:25:00
4:45 AM,46.4,24.8,43,30.06,10.0,SE,5.8,-,N/A,,Overcast,130,2013-03-10 08:45:00
5:05 AM,46.4,24.8,43,30.05,10.0,SE,5.8,-,N/A,,Mostly Cloudy,130,2013-03-10 09:05:00
5:25 AM,46.4,24.8,43,30.05,10.0,SE,8.1,-,N/A,,Mostly Cloudy,130,2013-03-10 09:25:00
5:45 AM,46.4,24.8,43,30.05,10.0,SE,5.8,-,N/A,,Mostly Cloudy,130,2013-03-10 09:45:00
6:05 AM,46.4,24.8,43,30.06,10.0,SE,4.6,-,N/A,,Mostly Cloudy,140,2013-03-10 10:05:00
6:25 AM,46.4,24.8,43,30.07,10.0,SE,4.6,-,N/A,,Overcast,140,2013-03-10 10:25:00
6:45 AM,46.4,24.8,43,30.07,10.0,Calm,Calm,-,N/A,,Overcast,0,2013-03-10 10:45:00
7:05 AM,46.4,26.6,46,30.08,10.0,SE,4.6,-,N/A,,Overcast,130,2013-03-10 11:05:00
8:05 AM,48.2,26.6,43,30.09,10.0,South,6.9,-,N/A,,Overcast,190,2013-03-10 12:05:00
8:45 AM,44.6,32.0,61,30.09,10.0,SSE,4.6,-,N/A,,Overcast,160,2013-03-10 12:45:00
9:05 AM,46.4,32.0,57,30.09,10.0,South,5.8,-,N/A,,Overcast,170,2013-03-10 13:05:00
9:25 AM,46.4,32.0,57,30.08,10.0,SSE,4.6,-,N/A,,Overcast,160,2013-03-10 13:25:00
9:45 AM,48.2,32.0,54,30.09,10.0,South,5.8,-,N/A,,Mostly Cloudy,170,2013-03-10 13:45:00
10:05 AM,48.2,32.0,54,30.09,10.0,South,5.8,-,N/A,,Scattered Clouds,170,2013-03-10 14:05:00
10:25 AM,51.8,32.0,47,30.09,10.0,South,5.8,-,N/A,,Scattered Clouds,190,2013-03-10 14:25:00
10:45 AM,53.6,32.0,44,30.09,10.0,SSW,3.5,-,N/A,,Clear,200,2013-03-10 14:45:00
11:05 AM,55.4,32.0,41,30.08,10.0,South,8.1,-,N/A,,Scattered Clouds,190,2013-03-10 15:05:00
11:25 AM,55.4,32.0,41,30.08,10.0,South,6.9,-,N/A,,Scattered Clouds,180,2013-03-10 15:25:00
11:45 AM,57.2,32.0,38,30.07,10.0,SSW,5.8,-,N/A,,Scattered Clouds,200,2013-03-10 15:45:00
12:05 PM,59.0,30.2,34,30.07,10.0,South,8.1,16.1,N/A,,Clear,190,2013-03-10 16:05:00
12:25 PM,60.8,30.2,31,30.06,10.0,SSW,8.1,16.1,N/A,,Unknown,210,2013-03-10 16:25:00
12:45 PM,60.8,30.2,31,30.06,10.0,SSW,8.1,-,N/A,,Unknown,210,2013-03-10 16:45:00
1:05 PM,59.0,30.2,34,30.05,10.0,South,10.4,-,N/A,,Unknown,180,2013-03-10 17:05:00
1:25 PM,60.8,30.2,31,30.03,10.0,South,3.5,-,N/A,,Clear,170,2013-03-10 17:25:00
1:45 PM,62.6,32.0,32,30.02,10.0,SSE,8.1,-,N/A,,Clear,150,2013-03-10 17:45:00
2:05 PM,64.4,32.0,30,30.01,10.0,SSE,9.2,-,N/A,,Clear,160,2013-03-10 18:05:00
2:25 PM,64.4,32.0,30,30.00,10.0,SSE,8.1,-,N/A,,Clear,150,2013-03-10 18:25:00
2:45 PM,66.2,32.0,28,30.00,10.0,South,9.2,19.6,N/A,,Clear,190,2013-03-10 18:45:00
3:05 PM,66.2,32.0,28,29.98,10.0,South,9.2,-,N/A,,Clear,180,2013-03-10 19:05:00
3:25 PM,66.2,32.0,28,29.98,10.0,South,8.1,17.3,N/A,,Clear,170,2013-03-10 19:25:00
3:45 PM,66.2,32.0,28,29.98,10.0,SSW,8.1,-,N/A,,Clear,200,2013-03-10 19:45:00
4:05 PM,66.2,32.0,28,29.97,10.0,South,5.8,-,N/A,,Clear,180,2013-03-10 20:05:00
4:25 PM,66.2,32.0,28,29.99,10.0,SSW,6.9,17.3,N/A,,Clear,200,2013-03-10 20:25:00
4:45 PM,68.0,32.0,26,29.98,10.0,South,6.9,-,N/A,,Clear,180,2013-03-10 20:45:00
5:05 PM,66.2,32.0,28,29.98,10.0,SSW,8.1,16.1,N/A,,Clear,210,2013-03-10 21:05:00
5:25 PM,64.4,32.0,30,29.98,10.0,SSW,5.8,-,N/A,,Clear,210,2013-03-10 21:25:00
5:45 PM,66.2,32.0,28,29.98,10.0,South,4.6,-,N/A,,Clear,190,2013-03-10 21:45:00
6:05 PM,64.4,30.2,28,29.97,10.0,South,9.2,-,N/A,,Clear,180,2013-03-10 22:05:00
6:25 PM,64.4,32.0,30,29.96,10.0,SSE,3.5,-,N/A,,Clear,160,2013-03-10 22:25:00
6:45 PM,64.4,32.0,30,29.95,10.0,SSE,4.6,-,N/A,,Clear,160,2013-03-10 22:45:00
7:05 PM,64.4,32.0,30,29.96,10.0,Calm,Calm,-,N/A,,Clear,0,2013-03-10 23:05:00
7:25 PM,62.6,32.0,32,29.96,10.0,Calm,Calm,-,N/A,,Clear,0,2013-03-10 23:25:00
7:45 PM,60.8,33.8,36,29.96,10.0,ESE,3.5,-,N/A,,Scattered Clouds,120,2013-03-10 23:45:00
8:05 PM,60.8,32.0,34,29.95,10.0,ESE,4.6,-,N/A,,Scattered Clouds,120,2013-03-11 00:05:00
8:25 PM,60.8,32.0,34,29.95,10.0,ESE,3.5,-,N/A,,Clear,120,2013-03-11 00:25:00
8:45 PM,59.0,32.0,36,29.94,10.0,SE,4.6,-,N/A,,Clear,130,2013-03-11 00:45:00
9:05 PM,59.0,32.0,36,29.94,10.0,ESE,4.6,-,N/A,,Clear,120,2013-03-11 01:05:00
9:25 PM,59.0,32.0,36,29.94,10.0,ESE,4.6,-,N/A,,Clear,120,2013-03-11 01:25:00
9:45 PM,59.0,32.0,36,29.94,10.0,ESE,4.6,-,N/A,,Clear,120,2013-03-11 01:45:00
10:05 PM,57.2,32.0,38,29.93,10.0,ESE,3.5,-,N/A,,Clear,120,2013-03-11 02:05:00
10:25 PM,57.2,32.0,38,29.94,10.0,SE,4.6,-,N/A,,Clear,130,2013-03-11 02:25:00
10:45 PM,57.2,32.0,38,29.93,10.0,ESE,6.9,-,N/A,,Clear,110,2013-03-11 02:45:00
11:05 PM,59.0,32.0,36,29.92,10.0,ESE,9.2,-,N/A,,Clear,120,2013-03-11 03:05:00
11:25 PM,59.0,30.2,34,29.90,10.0,ESE,9.2,-,N/A,,Clear,120,2013-03-11 03:25:00
11:45 PM,59.0,30.2,34,29.91,10.0,SE,9.2,-,N/A,,Clear,130,2013-03-11 03:45:00
12:05 AM,59.0,30.2,34,29.91,10.0,SE,8.1,-,N/A,,Clear,130,2013-03-11 04:05:00
12:25 AM,59.0,30.2,34,29.90,10.0,SE,9.2,-,N/A,,Clear,140,2013-03-11 04:25:00
12:45 AM,57.2,30.2,36,29.91,10.0,SE,8.1,-,N/A,,Clear,140,2013-03-11 04:45:00